Date,TemperatureHighF,TemperatureAvgF,TemperatureLowF,DewpointHighF,DewpointAvgF,DewpointLowF,HumidityHigh,HumidityAvg,HumidityLow,PressureMaxIn,PressureMinIn,WindSpeedMaxMPH,WindSpeedAvgMPH,GustSpeedMaxMPH,PrecipitationSumIn
2013-1-3,89,83,81,76,75,74,82,76,65,29.80,29.72,2,0,10,0.00
2013-1-4,90,82,74,79,75,72,92,82,66,29.81,29.72,2,1,12,0.20
2013-1-5,91,80,74,78,74,69,91,80,61,29.86,29.74,21,1,28,0.09
2013-1-6,91,80,74,76,73,70,91,79,59,29.85,29.78,6,1,15,0.01
2013-1-7,90,80,74,78,74,70,92,83,63,29.86,29.77,8,1,17,0.82
2013-1-8,90,80,73,78,73,70,92,80,62,29.83,29.70,3,0,12,0.09
2013-1-9,91,83,74,81,75,71,89,79,69,29.75,29.60,3,0,7,0.00
2013-1-10,76,75,73,73,71,70,91,89,88,29.67,29.63,1,0,2,0.00
2013-1-11,89,82,76,80,76,72,88,81,66,29.84,29.71,13,2,17,0.00
2013-1-12,80,78,77,76,74,73,92,88,81,29.85,29.79,1,0,4,0.10
2013-1-13,87,83,76,78,74,71,87,76,69,29.83,29.75,16,5,20,0.00
2013-1-14,91,81,72,78,73,68,90,76,60,29.82,29.72,6,1,12,0.00
2013-1-15,92,82,71,81,75,68,91,79,67,29.81,29.72,12,2,18,0.00
2013-1-16,89,81,75,80,74,71,92,80,67,29.83,29.75,8,1,12,0.06
2013-1-17,88,81,74,79,74,70,89,79,68,29.82,29.73,9,2,15,0.06
2013-1-18,90,81,72,79,74,69,91,80,66,29.82,29.70,8,1,13,0.01
2013-1-19,81,76,74,76,73,71,93,91,82,29.76,29.62,9,1,15,1.99
2013-1-20,93,80,74,81,75,72,93,86,67,29.74,29.61,9,0,12,0.08
2013-1-21,89,79,75,81,76,73,94,89,74,29.69,29.55,6,0,10,0.57
2013-1-22,81,77,74,78,74,72,94,92,89,29.59,29.44,12,1,17,1.26
2013-1-23,84,81,78,80,77,75,93,90,85,29.47,29.28,22,8,31,2.09
2013-1-24,85,80,76,78,75,72,92,87,77,29.53,29.26,28,4,36,0.97
2013-1-25,99,85,77,80,76,73,90,77,50,29.58,29.43,7,2,21,0.01
2013-1-26,97,86,82,82,76,70,85,71,53,29.61,29.45,9,2,14,0.00
2013-1-27,100,85,81,82,76,75,87,75,49,29.60,29.47,20,4,30,0.31
2013-1-28,91,81,77,77,74,73,89,81,63,29.61,29.53,7,2,15,0.52